�������l�o���
Date,Time,MP-1(��Sv/h),MP-2(��Sv/h),MP-3(��Sv/h),MP-4(��Sv/h),MP-5(��Sv/h),MP-6(��Sv/h),MP-7(��Sv/h),MP-8(��Sv/h),����,����(m/s),���J
2018/12/04,00:00,0.794,1.197,0.840,1.496,1.084,0.458,0.807,0.764,��쐼,1.5,��
2018/12/04,00:10,0.794,1.197,0.842,1.497,1.085,0.458,0.806,0.764,��,2.8,��
2018/12/04,00:20,0.793,1.195,0.841,1.499,1.084,0.457,0.807,0.762,��,1.9,��
2018/12/04,00:30,0.793,1.196,0.841,1.496,1.085,0.456,0.807,0.763,��쓌,1.7,��
2018/12/04,00:40,0.795,1.196,0.841,1.499,1.085,0.457,0.806,0.764,��쓌,1.2,��
2018/12/04,00:50,0.793,1.196,0.842,1.497,1.085,0.458,0.809,0.763,��쓌,1.5,��
2018/12/04,01:00,0.795,1.197,0.840,1.498,1.081,0.458,0.808,0.765,�쓌,1.5,��
2018/12/04,01:10,0.792,1.196,0.842,1.498,1.086,0.457,0.809,0.764,�쓌,0.9,��
2018/12/04,01:20,0.791,1.195,0.842,1.496,1.084,0.457,0.806,0.764,-,CALM,��
2018/12/04,01:30,0.791,1.201,0.841,1.497,1.084,0.458,0.808,0.765,-,CALM,��
2018/12/04,01:40,0.793,1.194,0.841,1.499,1.083,0.456,0.807,0.763,��,1.1,��
2018/12/04,01:50,0.793,1.195,0.841,1.501,1.083,0.458,0.807,0.764,��쐼,0.9,��
2018/12/04,02:00,0.793,1.196,0.840,1.501,1.082,0.457,0.807,0.763,��,2.0,��
2018/12/04,02:10,0.792,1.195,0.839,1.503,1.083,0.455,0.808,0.764,��,2.0,��
2018/12/04,02:20,0.794,1.196,0.842,1.505,1.083,0.458,0.809,0.766,��쓌,2.6,��
2018/12/04,02:30,0.794,1.195,0.842,1.499,1.084,0.457,0.807,0.765,��쓌,3.3,��
2018/12/04,02:40,0.794,1.194,0.840,1.504,1.083,0.457,0.809,0.764,��쓌,2.9,��
2018/12/04,02:50,0.793,1.195,0.842,1.503,1.084,0.454,0.808,0.765,��쓌,1.9,��
2018/12/04,03:00,0.793,1.198,0.840,1.501,1.083,0.460,0.808,0.764,��쓌,1.7,��
2018/12/04,03:10,0.794,1.196,0.841,1.502,1.082,0.458,0.809,0.765,��,2.3,��
2018/12/04,03:20,0.792,1.195,0.841,1.502,1.084,0.457,0.808,0.764,��쐼,2.0,��
2018/12/04,03:30,0.796,1.196,0.841,1.503,1.084,0.457,0.809,0.765,�쐼,1.9,��
2018/12/04,03:40,0.796,1.196,0.842,1.505,1.081,0.457,0.808,0.764,��쐼,1.2,�L
2018/12/04,03:50,0.792,1.196,0.840,1.501,1.083,0.459,0.808,0.767,��,2.6,�L
2018/12/04,04:00,0.794,1.195,0.842,1.503,1.086,0.457,0.808,0.765,��,2.8,�L
2018/12/04,04:10,0.793,1.188,0.840,1.497,1.079,0.459,0.805,0.763,��쐼,1.1,�L
2018/12/04,04:20,0.790,1.185,0.839,1.496,1.073,0.461,0.804,0.763,��쐼,1.2,�L
2018/12/04,04:30,0.789,1.179,0.837,1.490,1.070,0.459,0.802,0.762,��쓌,2.2,�L
2018/12/04,04:40,0.789,1.174,0.837,1.490,1.069,0.461,0.802,0.763,��쓌,2.3,�L
2018/12/04,04:50,0.787,1.174,0.835,1.487,1.067,0.461,0.800,0.761,��쓌,2.6,�L
2018/12/04,05:00,0.786,1.172,0.834,1.484,1.064,0.459,0.800,0.759,-,CALM,�L
2018/12/04,05:10,0.785,1.166,0.833,1.480,1.062,0.458,0.799,0.758,�쓌,2.0,�L
2018/12/04,05:20,0.783,1.168,0.833,1.480,1.061,0.459,0.799,0.759,���쓌,1.5,�L
2018/12/04,05:30,0.784,1.168,0.831,1.478,1.060,0.459,0.798,0.758,��,1.4,�L
2018/12/04,05:40,0.783,1.167,0.830,1.479,1.061,0.457,0.798,0.760,�k�k��,1.2,��
2018/12/04,05:50,0.780,1.166,0.828,1.476,1.059,0.457,0.799,0.758,-,CALM,��
2018/12/04,06:00,0.782,1.166,0.827,1.473,1.056,0.454,0.799,0.758,-,CALM,��
2018/12/04,06:10,0.779,1.165,0.829,1.474,1.054,0.456,0.798,0.758,���k��,0.9,��
2018/12/04,06:20,0.779,1.164,0.828,1.471,1.057,0.455,0.798,0.757,�k,1.4,�L
2018/12/04,06:30,0.777,1.164,0.827,1.474,1.054,0.454,0.800,0.759,�k,2.9,�L
2018/12/04,06:40,0.777,1.164,0.829,1.471,1.056,0.454,0.800,0.759,�k,3.4,��
2018/12/04,06:50,0.778,1.163,0.824,1.473,1.055,0.452,0.797,0.760,�k�k��,2.5,��
2018/12/04,07:00,0.778,1.163,0.826,1.472,1.055,0.453,0.799,0.756,�k�k��,2.3,��
2018/12/04,07:10,0.777,1.165,0.825,1.470,1.054,0.452,0.798,0.757,�k,2.3,��
2018/12/04,07:20,0.777,1.162,0.824,1.468,1.055,0.453,0.798,0.757,�k,2.0,��
2018/12/04,07:30,0.778,1.163,0.826,1.471,1.056,0.454,0.798,0.758,�k,2.8,��
2018/12/04,07:40,0.778,1.163,0.823,1.470,1.054,0.452,0.799,0.757,�k�k��,3.0,��
2018/12/04,07:50,0.779,1.163,0.825,1.473,1.054,0.454,0.800,0.757,�k�k��,1.5,��
2018/12/04,08:00,0.777,1.164,0.824,1.474,1.058,0.451,0.798,0.757,�k,2.0,��
2018/12/04,08:10,0.777,1.162,0.825,1.471,1.057,0.452,0.799,0.757,�k,1.9,��
2018/12/04,08:20,0.777,1.165,0.822,1.471,1.056,0.453,0.799,0.757,�k��,1.5,��
2018/12/04,08:30,0.776,1.161,0.820,1.473,1.056,0.452,0.799,0.756,�k��,1.1,��
2018/12/04,08:40,0.779,1.161,0.822,1.472,1.055,0.452,0.798,0.757,�k��,0.9,��
2018/12/04,08:50,0.778,1.162,0.824,1.470,1.058,0.452,0.800,0.759,�쓌,1.2,��
2018/12/04,09:00,0.778,1.161,0.825,1.471,1.058,0.454,0.799,0.758,-,CALM,��
2018/12/04,09:10,0.777,1.164,0.823,1.472,1.057,0.452,0.799,0.757,��쐼,1.1,��
2018/12/04,09:20,0.780,1.163,0.824,1.470,1.055,0.453,0.800,0.756,��,0.9,��
2018/12/04,09:30,0.779,1.160,0.826,1.470,1.057,0.453,0.800,0.758,��쓌,1.4,��
2018/12/04,09:40,0.779,1.156,0.825,1.470,1.058,0.454,0.801,0.759,��,1.5,��
2018/12/04,09:50,0.778,1.153,0.825,1.471,1.058,0.453,0.799,0.758,��쓌,0.9,��
2018/12/04,10:00,0.778,1.159,0.824,1.470,1.059,0.453,0.799,0.758,�쓌,0.8,��
2018/12/04,10:10,0.778,1.157,0.822,1.471,1.058,0.454,0.801,0.758,��쓌,1.5,��
2018/12/04,10:20,0.778,1.157,0.822,1.471,1.057,0.452,0.799,0.758,��,1.1,��
2018/12/04,10:30,0.780,1.162,0.821,1.471,1.059,0.451,0.798,0.759,���k��,1.2,��
2018/12/04,10:40,0.778,1.159,0.822,1.471,1.059,0.451,0.802,0.760,���k��,1.5,��
2018/12/04,10:50,0.781,1.158,0.824,1.472,1.061,0.449,0.801,0.759,���k��,1.4,��
2018/12/04,11:00,0.780,1.162,0.824,1.471,1.058,0.451,0.802,-,�k��,1.2,��
2018/12/04,11:10,0.779,1.163,0.827,1.471,1.057,0.450,0.801,-,���k��,0.9,��
2018/12/04,11:20,0.779,1.161,0.826,1.472,1.061,0.452,0.801,-,-,CALM,��
2018/12/04,11:30,0.780,1.164,0.827,1.473,1.063,0.451,0.801,-,���k��,1.5,��
2018/12/04,11:40,0.782,1.165,0.825,1.473,1.060,0.453,0.802,-,���쓌,0.9,��
2018/12/04,11:50,0.781,1.169,0.827,1.474,1.063,0.453,0.801,-,��쓌,0.6,��
2018/12/04,12:00,0.783,1.170,0.825,1.473,1.065,0.453,0.803,-,��쓌,1.1,��
2018/12/04,12:10,0.783,1.170,0.829,1.475,1.065,0.455,0.801,-,�쓌,1.2,��
2018/12/04,12:20,0.782,1.170,0.826,1.474,1.064,0.455,0.802,-,���쓌,1.5,��
2018/12/04,12:30,0.781,1.169,0.826,1.473,1.066,0.457,0.801,-,��,1.2,��
2018/12/04,12:40,0.781,1.168,0.827,1.475,1.067,0.455,0.800,-,�쓌,1.2,��
2018/12/04,12:50,0.782,1.169,0.827,1.475,1.064,0.456,0.801,-,��쓌,0.8,��
2018/12/04,13:00,0.783,1.168,0.827,1.476,1.064,0.455,0.802,-,�쓌,0.9,��
2018/12/04,13:10,0.782,1.164,0.827,1.474,1.066,0.457,0.802,-,�쓌,2.6,��
2018/12/04,13:20,0.782,1.165,0.826,1.475,1.065,0.457,0.803,-,���쓌,1.5,��
2018/12/04,13:30,0.783,1.166,0.826,1.475,1.064,0.455,0.804,-,�쓌,1.7,��
2018/12/04,13:40,0.782,1.162,0.827,1.476,1.064,0.455,0.802,-,��쓌,2.2,��
2018/12/04,13:50,0.782,1.163,0.829,1.474,1.064,0.455,0.804,-,��쓌,1.9,��
2018/12/04,14:00,0.782,1.166,0.827,1.475,1.064,0.456,0.804,-,�쓌,1.7,��
2018/12/04,14:10,0.783,1.167,0.827,1.475,1.064,0.456,0.803,-,�쓌,1.4,��
2018/12/04,14:20,0.781,1.161,0.827,1.475,1.064,0.457,0.803,-,�쓌,1.2,��
2018/12/04,14:30,0.782,1.167,0.827,1.475,1.066,0.457,0.805,-,��쓌,1.5,��
2018/12/04,14:40,0.782,1.165,0.825,1.475,1.064,0.455,0.802,-,��,2.0,��
2018/12/04,14:50,0.783,1.167,0.828,1.473,1.064,0.457,0.803,-,��쓌,3.2,��
2018/12/04,15:00,0.782,1.170,0.828,1.474,1.065,0.456,0.804,-,��쓌,2.9,��
2018/12/04,15:10,0.781,1.167,0.827,1.475,1.064,0.456,0.805,0.759,��쓌,3.2,��
2018/12/04,15:20,0.781,1.173,0.826,1.473,1.061,0.457,0.804,0.758,��쓌,3.9,��
2018/12/04,15:30,0.782,1.175,0.828,1.475,1.065,0.455,0.804,0.757,��,3.0,��
2018/12/04,15:40,0.781,1.173,0.827,1.473,1.063,0.458,0.803,0.760,��쐼,2.5,��
2018/12/04,15:50,0.782,1.174,0.831,1.474,1.063,0.456,0.804,0.762,��쐼,2.3,��
2018/12/04,16:00,0.783,1.175,0.830,1.474,1.065,0.456,0.805,0.761,�쐼,2.3,��
2018/12/04,16:10,0.785,1.175,0.831,1.477,1.064,0.457,0.805,0.761,��,2.0,��
2018/12/04,16:20,0.786,1.175,0.832,1.474,1.065,0.457,0.804,0.762,��,3.3,��
2018/12/04,16:30,0.784,1.177,0.829,1.473,1.063,0.457,0.803,0.761,��쐼,4.6,��
2018/12/04,16:40,0.785,1.176,0.829,1.475,1.068,0.457,0.804,0.760,��쐼,5.7,��
2018/12/04,16:50,0.783,1.178,0.831,1.476,1.067,0.457,0.805,0.760,��쐼,4.9,��
2018/12/04,17:00,0.787,1.174,0.831,1.478,1.066,0.457,0.805,0.762,��쐼,4.7,��
2018/12/04,17:10,0.785,1.174,0.831,1.475,1.066,0.457,0.805,0.761,��쐼,4.1,��
2018/12/04,17:20,0.786,1.177,0.832,1.475,1.066,0.457,0.804,0.759,��쐼,3.8,��
2018/12/04,17:30,0.785,1.177,0.830,1.477,1.068,0.458,0.805,0.761,��,4.3,��
2018/12/04,17:40,0.786,1.176,0.829,1.475,1.065,0.458,0.805,0.760,��,4.9,��
2018/12/04,17:50,0.787,1.177,0.830,1.474,1.068,0.456,0.805,0.761,��쐼,4.3,��
2018/12/04,18:00,0.784,1.176,0.832,1.475,1.066,0.458,0.805,0.760,��,2.0,��
2018/12/04,18:10,0.786,1.177,0.832,1.477,1.066,0.458,0.806,0.760,��쐼,2.3,��
2018/12/04,18:20,0.786,1.176,0.830,1.476,1.067,0.457,0.806,0.762,��,2.6,��
2018/12/04,18:30,0.786,1.176,0.833,1.476,1.068,0.456,0.807,0.761,��,3.0,��
2018/12/04,18:40,0.786,1.175,0.830,1.475,1.067,0.458,0.805,0.760,��쐼,5.6,��
2018/12/04,18:50,0.786,1.175,0.832,1.476,1.067,0.458,0.807,0.762,�쐼,6.5,��
2018/12/04,19:00,0.785,1.174,0.833,1.475,1.068,0.457,0.806,0.762,�쐼,7.8,��
2018/12/04,19:10,0.786,1.178,0.833,1.479,1.067,0.457,0.806,0.761,�쐼,6.4,��
2018/12/04,19:20,0.789,1.177,0.832,1.477,1.067,0.457,0.805,0.762,��쐼,5.2,��
2018/12/04,19:30,0.789,1.177,0.834,1.479,1.067,0.458,0.805,0.763,��쐼,4.0,��
2018/12/04,19:40,0.788,1.177,0.834,1.475,1.066,0.458,0.807,0.763,��쐼,3.8,��
2018/12/04,19:50,0.788,1.177,0.833,1.478,1.068,0.458,0.806,0.761,��쐼,2.6,��
2018/12/04,20:00,0.788,1.178,0.835,1.477,1.067,0.457,0.805,0.762,��쐼,3.5,��
2018/12/04,20:10,0.790,1.178,0.833,1.476,1.067,0.458,0.805,0.762,��쐼,3.4,��
2018/12/04,20:20,0.786,1.178,0.834,1.478,1.069,0.456,0.804,0.761,��,2.9,��
2018/12/04,20:30,0.787,1.178,0.832,1.477,1.067,0.457,0.805,0.762,��쐼,3.1,��
2018/12/04,20:40,0.784,1.177,0.833,1.478,1.068,0.455,0.804,0.761,��,2.0,�L
2018/12/04,20:50,0.785,1.177,0.833,1.477,1.065,0.458,0.804,0.763,�쓌,2.0,��
2018/12/04,21:00,0.786,1.176,0.835,1.475,1.066,0.457,0.805,0.763,��쓌,2.8,��
2018/12/04,21:10,0.785,1.178,0.832,1.476,1.067,0.456,0.805,0.760,��,4.4,��
2018/12/04,21:20,0.786,1.177,0.831,1.479,1.069,0.455,0.807,0.761,��,6.0,��
2018/12/04,21:30,0.787,1.177,0.833,1.475,1.066,0.457,0.805,0.761,�쐼,3.7,��
2018/12/04,21:40,0.789,1.177,0.833,1.479,1.067,0.457,0.806,0.760,��쐼,2.6,��
2018/12/04,21:50,0.788,1.178,0.833,1.479,1.066,0.458,0.804,0.762,��쐼,4.5,��
2018/12/04,22:00,0.787,1.178,0.835,1.476,1.068,0.457,0.806,0.762,��쐼,2.5,��
2018/12/04,22:10,0.789,1.178,0.831,1.479,1.069,0.458,0.807,0.761,�쐼,3.9,��
2018/12/04,22:20,0.789,1.176,0.834,1.477,1.068,0.459,0.806,0.762,�쐼,2.3,��
2018/12/04,22:30,0.788,1.180,0.836,1.478,1.066,0.457,0.804,0.764,��,2.5,��
2018/12/04,22:40,0.789,1.177,0.833,1.478,1.068,0.457,0.805,0.762,�쐼,2.2,��
2018/12/04,22:50,0.788,1.177,0.836,1.479,1.069,0.455,0.804,0.761,��,1.7,��
2018/12/04,23:00,0.788,1.177,0.834,1.479,1.065,0.457,0.805,0.760,��,1.5,��
2018/12/04,23:10,0.788,1.177,0.833,1.477,1.066,0.457,0.805,0.761,�쐼,2.8,��
2018/12/04,23:20,0.788,1.177,0.834,1.477,1.068,0.456,0.805,0.763,��,2.6,��
2018/12/04,23:30,0.790,1.177,0.833,1.478,1.068,0.456,0.804,0.762,���쐼,2.5,��
2018/12/04,23:40,0.789,1.179,0.835,1.479,1.067,0.456,0.804,0.763,��,4.6,��
2018/12/04,23:50,0.787,1.179,0.833,1.479,1.067,0.458,0.806,0.762,���k��,4.0,��
